User: anonymous   Login
Location: Calimesa Mobile Home Ranch
(33.9736°N, 117.0370°W)
Time: 17:35:23
(UTC+00:00)
Language:

Thor Agena Rocket - Orbit

View from above orbital plane
View from above orbital plane
View from above satellite
View from above satellite

Ground track
Ground track

The orbit data is extracted from the following two-line orbital elements,

1   733U 64002A   24204.93626818  .00000665  00000-0  25770-3 0  9991
2   733  99.0762 176.1198 0033033 188.2048 171.8598 14.33265475153518
Epoch (UTC): 22 July 2024 22:28:13
Eccentricity: 0.0033033
inclination: 99.0762°
perigee height: 757 km
apogee height: 804 km
right ascension of ascending node: 176.1198°
argument of perigee: 188.2048°
revolutions per day: 14.33265475
mean anomaly at epoch: 171.8598°
orbit number at epoch: 15351

The dashed part of the orbit path shows where the satellite is in the earth's shadow,  

DLR